K9DC Weather Reports


Display with metric or nautical units.
time (UTC)temp
F
wind
direction
speed
MPH
gust
MPH
rain 1hr
in
rain 24hr
in
rain mn
in
humidity
%
barometer
mb
20260508065504 52 233 5.0 12.0 0.00 0.00 0.00 57 1012.6
20260508065005 52 233 5.0 12.0 0.00 0.00 0.00 59 1012.6
20260508064504 52 233 5.0 12.0 0.00 0.00 0.00 59 1012.7
20260508064003 52 239 5.0 12.0 0.00 0.00 0.00 59 1012.8
20260508063503 51 241 5.0 12.0 0.00 0.00 0.00 60 1012.9
20260508063003 51 243 3.0 12.0 0.00 0.00 0.00 63 1012.9
20260508062504 51 238 4.0 12.0 0.00 0.00 0.00 63 1012.9
20260508062004 51 239 4.0 12.0 0.00 0.00 0.00 63 1013.0
20260508061503 51 246 3.0 9.0 0.00 0.00 0.00 65 1013.0
20260508061003 50 245 3.0 8.0 0.00 0.00 0.00 65 1013.0
20260508060503 50 241 2.0 6.0 0.00 0.00 0.00 66 1013.0
20260508060003 50 241 2.0 5.0 0.00 0.00 0.00 67 1013.0
20260508055503 50 241 3.0 6.0 0.00 0.00 0.00 67 1012.9
20260508055004 50 241 3.0 7.0 0.00 0.00 0.00 69 1012.9
20260508054504 50 237 3.0 7.0 0.00 0.00 0.00 69 1012.9
20260508054005 50 231 2.0 6.0 0.00 0.00 0.00 70 1012.9
20260508053503 50 232 2.0 6.0 0.00 0.00 0.00 71 1012.9
20260508053003 50 233 2.0 5.0 0.00 0.00 0.00 71 1012.9
20260508052504 50 232 2.0 6.0 0.00 0.00 0.00 71 1012.8
20260508052004 50 232 3.0 6.0 0.00 0.00 0.00 71 1012.8
20260508051504 50 235 3.0 6.0 0.00 0.00 0.00 71 1012.8
20260508051003 50 239 2.0 8.0 0.00 0.00 0.00 72 1012.8
20260508050503 50 243 2.0 8.0 0.00 0.00 0.00 72 1012.9
20260508050006 50 239 2.0 6.0 0.00 0.00 0.00 72 1012.9
20260508045503 50 233 3.0 6.0 0.00 0.00 0.00 72 1013.0
20260508045003 50 228 2.0 5.0 0.00 0.00 0.00 72 1013.0
20260508044504 50 227 3.0 6.0 0.00 0.00 0.00 72 1012.9
20260508044004 50 226 3.0 6.0 0.00 0.00 0.00 72 1012.8
20260508043504 50 224 2.0 6.0 0.00 0.00 0.00 72 1012.9
20260508043005 50 224 2.0 6.0 0.00 0.00 0.00 73 1013.0
20260508042503 50 224 3.0 7.0 0.00 0.00 0.00 73 1013.0
20260508042004 50 229 3.0 8.0 0.00 0.00 0.00 73 1012.9
20260508041504 50 238 3.0 8.0 0.00 0.00 0.00 74 1012.8
20260508041004 50 242 3.0 6.0 0.00 0.00 0.00 74 1012.9
20260508040504 50 241 2.0 6.0 0.00 0.00 0.00 75 1012.9
20260508040003 50 241 2.0 6.0 0.00 0.00 0.00 75 1012.9
20260508035504 50 240 2.0 6.0 0.00 0.00 0.00 75 1012.8
20260508035003 50 241 2.0 6.0 0.00 0.00 0.00 75 1012.9
20260508034504 50 243 3.0 6.0 0.00 0.00 0.00 76 1012.8
20260508034003 50 241 3.0 7.0 0.00 0.00 0.00 76 1012.8
20260508033505 50 237 3.0 7.0 0.00 0.00 0.00 76 1012.8
20260508033005 50 238 3.0 6.0 0.00 0.00 0.00 76 1012.9
20260508032503 50 243 3.0 6.0 0.00 0.00 0.00 76 1012.9
20260508032004 50 246 2.0 6.0 0.00 0.00 0.00 76 1012.9
20260508031504 50 246 2.0 6.0 0.00 0.00 0.00 75 1013.0
20260508031003 49 245 3.0 8.0 0.00 0.00 0.00 75 1013.1
20260508030503 49 245 3.0 8.0 0.00 0.00 0.00 74 1013.0
20260508030005 49 245 3.0 6.0 0.00 0.00 0.00 74 1013.0
20260508025503 49 247 3.0 6.0 0.00 0.00 0.00 74 1013.0
20260508025004 50 250 3.0 6.0 0.00 0.00 0.00 74 1013.0
20260508024504 50 252 3.0 5.0 0.00 0.00 0.00 74 1013.0
20260508024003 50 252 2.0 6.0 0.00 0.00 0.00 74 1012.9
20260508023503 50 252 3.0 6.0 0.00 0.00 0.00 74 1012.9
20260508023004 50 259 3.0 6.0 0.00 0.00 0.00 73 1012.8
20260508022504 50 271 2.0 5.0 0.00 0.00 0.00 73 1012.8
20260508022005 50 281 2.0 4.0 0.00 0.00 0.00 74 1012.8
20260508021503 50 281 2.0 4.0 0.00 0.00 0.00 73 1012.7
20260508021003 50 281 2.0 4.0 0.00 0.00 0.00 73 1012.7
20260508020504 50 281 2.0 4.0 0.00 0.00 0.00 72 1012.8
20260508020004 51 298 2.0 4.0 0.00 0.00 0.00 72 1012.8
20260508015504 51 316 2.0 4.0 0.00 0.00 0.00 72 1012.6
20260508015004 51 321 2.0 3.0 0.00 0.00 0.00 71 1012.6
20260508014504 51 321 1.0 4.0 0.00 0.00 0.00 70 1012.6
20260508014003 51 321 1.0 4.0 0.00 0.00 0.00 70 1012.5
20260508013504 52 321 1.0 3.0 0.00 0.00 0.00 69 1012.5
20260508013004 52 320 0.0 3.0 0.00 0.00 0.00 68 1012.4
20260508012503 52 321 1.0 4.0 0.00 0.00 0.00 68 1012.3
20260508012004 52 321 1.0 4.0 0.00 0.00 0.00 67 1012.4
20260508011503 53 321 1.0 3.0 0.00 0.00 0.00 66 1012.5
20260508011004 53 321 1.0 3.0 0.00 0.00 0.00 65 1012.4
20260508010504 53 321 1.0 3.0 0.00 0.00 0.00 65 1012.4
20260508010004 54 320 0.0 2.0 0.00 0.00 0.00 64 1012.5
20260508005503 54 321 1.0 2.0 0.00 0.00 0.00 64 1012.6
20260508005004 54 321 0.0 2.0 0.00 0.00 0.00 63 1012.5
20260508004504 54 320 0.0 2.0 0.00 0.00 0.00 63 1012.5
20260508004005 54 321 1.0 4.0 0.00 0.00 0.00 63 1012.7
20260508003504 54 321 1.0 4.0 0.00 0.00 0.00 63 1012.8
20260508003004 54 321 1.0 4.0 0.00 0.00 0.00 64 1012.9
20260508002503 54 321 1.0 4.0 0.00 0.00 0.00 63 1012.8
20260508002003 54 321 1.0 4.0 0.00 0.00 0.00 62 1012.9
20260508001505 54 321 0.0 3.0 0.00 0.00 0.00 62 1012.9
20260508001003 55 321 1.0 4.0 0.00 0.00 0.00 62 1012.8
20260508000503 55 321 1.0 4.0 0.00 0.00 0.00 62 1012.8
20260508000003 55 321 1.0 4.0 0.00 0.00 0.00 61 1012.9
20260507235504 55 321 1.0 4.0 0.00 0.00 0.00 61 1013.0
20260507235003 55 321 1.0 3.0 0.00 0.00 0.00 62 1012.9
20260507234503 55 324 1.0 8.0 0.00 0.00 0.00 61 1012.9
20260507234003 55 325 1.0 8.0 0.00 0.00 0.00 61 1013.0
20260507233505 55 330 0.0 3.0 0.00 0.00 0.00 61 1013.0
20260507233004 55 325 1.0 10.0 0.00 0.00 0.00 61 1012.9
20260507232504 55 325 3.0 10.0 0.00 0.00 0.00 61 1012.9
20260507232003 55 324 3.0 10.0 0.00 0.00 0.00 60 1013.1
20260507231503 56 317 4.0 16.0 0.00 0.00 0.00 59 1013.3
20260507231004 56 316 4.0 16.0 0.00 0.00 0.00 57 1013.3
20260507230504 57 321 4.0 20.0 0.00 0.00 0.00 55 1013.3
20260507230004 58 312 6.0 20.0 0.00 0.00 0.00 50 1013.3
20260507225504 60 281 9.0 24.0 0.00 0.00 0.00 43 1013.2
20260507225004 60 272 10.0 28.0 0.00 0.00 0.00 42 1013.1
20260507224505 60 289 10.0 28.0 0.00 0.00 0.00 37 1013.0
20260507224003 61 292 6.0 19.0 0.00 0.00 0.00 36 1012.8
20260507223504 61 271 5.0 11.0 0.00 0.00 0.00 36 1012.8
20260507223005 61 268 5.0 11.0 0.00 0.00 0.00 33 1012.6
20260507222505 61 281 6.0 14.0 0.00 0.00 0.00 35 1012.6
20260507222003 61 281 7.0 14.0 0.00 0.00 0.00 33 1012.5
20260507221504 62 273 8.0 16.0 0.00 0.00 0.00 32 1012.4
20260507221005 62 271 8.0 16.0 0.00 0.00 0.00 32 1012.3
20260507220503 62 253 6.0 19.0 0.00 0.00 0.00 33 1012.3
20260507220003 62 237 4.0 19.0 0.00 0.00 0.00 34 1012.3
20260507215504 62 247 4.0 11.0 0.00 0.00 0.00 35 1012.3
20260507215003 62 247 5.0 11.0 0.00 0.00 0.00 31 1012.3
20260507214503 62 252 5.0 12.0 0.00 0.00 0.00 31 1012.3
20260507214005 63 268 5.0 12.0 0.00 0.00 0.00 31 1012.2
20260507213503 63 284 5.0 12.0 0.00 0.00 0.00 32 1012.3
20260507213004 63 270 8.0 17.0 0.00 0.00 0.00 31 1012.3
20260507212504 63 261 9.0 17.0 0.00 0.00 0.00 31 1012.2
20260507212003 63 264 7.0 16.0 0.00 0.00 0.00 32 1012.3
20260507211503 63 262 7.0 16.0 0.00 0.00 0.00 31 1012.3
20260507211003 63 257 7.0 17.0 0.00 0.00 0.00 30 1012.4
20260507210504 64 263 8.0 17.0 0.00 0.00 0.00 29 1012.4
20260507210004 65 264 6.0 17.0 0.00 0.00 0.00 28 1012.4
20260507205503 65 244 6.0 14.0 0.00 0.01 0.00 30 1012.4
20260507205004 65 244 4.0 14.0 0.00 0.01 0.00 31 1012.4
20260507204504 64 276 4.0 9.0 0.00 0.01 0.00 34 1012.5
20260507204003 64 265 6.0 11.0 0.00 0.01 0.00 34 1012.5
20260507203503 63 265 6.0 15.0 0.00 0.01 0.00 32 1012.7
20260507203004 63 275 6.0 17.0 0.00 0.01 0.00 32 1012.7
20260507202504 63 279 5.0 17.0 0.00 0.01 0.00 33 1012.8
20260507202004 64 268 4.0 11.0 0.00 0.01 0.00 31 1012.9
20260507201503 64 248 3.0 10.0 0.00 0.01 0.00 31 1012.9
20260507201003 64 256 4.0 10.0 0.00 0.01 0.00 33 1013.0
20260507200504 64 255 6.0 14.0 0.00 0.01 0.00 37 1013.1
20260507200004 64 256 5.0 14.0 0.00 0.01 0.00 33 1013.2
20260507195503 63 275 4.0 13.0 0.00 0.01 0.00 37 1013.2
20260507195003 63 272 2.0 13.0 0.00 0.01 0.00 33 1013.3
20260507194505 62 268 3.0 10.0 0.00 0.01 0.00 34 1013.3
20260507194004 62 274 5.0 10.0 0.00 0.01 0.00 33 1013.4
20260507193503 63 295 6.0 14.0 0.00 0.01 0.00 33 1013.5
20260507193003 63 281 6.0 15.0 0.00 0.01 0.00 32 1013.5
20260507192503 63 262 5.0 15.0 0.00 0.01 0.00 35 1013.6
20260507192004 63 267 4.0 9.0 0.00 0.01 0.00 33 1013.5
20260507191503 64 276 5.0 11.0 0.00 0.01 0.00 33 1013.6
20260507191003 63 267 6.0 14.0 0.00 0.01 0.00 36 1013.8
20260507190503 63 269 5.0 14.0 0.00 0.01 0.00 35 1013.9
20260507190006 63 279 4.0 10.0 0.00 0.01 0.00 35 1013.9
20260507185503 62 289 5.0 15.0 0.00 0.01 0.00 35 1014.0
20260507185004 62 296 6.0 15.0 0.00 0.01 0.00 36 1014.0
20260507184504 62 300 5.0 13.0 0.00 0.01 0.00 35 1014.0
20260507184004 62 279 4.0 13.0 0.00 0.01 0.00 41 1014.0
20260507183503 62 270 6.0 12.0 0.00 0.01 0.00 40 1014.0
20260507183004 61 264 8.0 15.0 0.00 0.01 0.00 37 1013.9
20260507182504 61 263 6.0 15.0 0.00 0.01 0.00 36 1014.0
20260507182004 61 304 4.0 11.0 0.00 0.01 0.00 38 1014.2
20260507181503 61 302 6.0 14.0 0.00 0.01 0.00 37 1014.1
20260507181003 61 300 4.0 14.0 0.00 0.01 0.00 38 1014.1
20260507180505 62 308 2.0 8.0 0.00 0.01 0.00 37 1014.2
20260507180004 61 317 2.0 8.0 0.00 0.01 0.00 35 1014.1
20260507175504 61 313 3.0 10.0 0.00 0.01 0.00 38 1014.3
20260507175004 61 291 6.0 15.0 0.00 0.01 0.00 37 1014.6
20260507174504 61 289 6.0 16.0 0.00 0.01 0.00 38 1014.6
20260507174005 61 296 4.0 16.0 0.00 0.01 0.00 42 1014.6
20260507173505 60 302 5.0 12.0 0.00 0.01 0.00 38 1014.7
20260507173004 60 313 5.0 12.0 0.00 0.01 0.00 38 1014.7
20260507172504 60 321 3.0 9.0 0.00 0.01 0.00 40 1014.7
20260507172004 60 315 4.0 13.0 0.00 0.01 0.00 38 1014.8
20260507171504 60 307 5.0 13.0 0.00 0.01 0.00 38 1014.9
20260507171003 60 299 5.0 15.0 0.00 0.01 0.00 40 1014.9
20260507170503 60 298 5.0 16.0 0.00 0.01 0.00 38 1014.9
20260507170004 59 300 6.0 16.0 0.00 0.01 0.00 39 1015.0
20260507165504 59 277 6.0 13.0 0.00 0.01 0.00 40 1015.1
20260507165003 59 272 5.0 11.0 0.00 0.01 0.00 39 1015.2
20260507164503 59 300 5.0 14.0 0.00 0.01 0.00 39 1015.2
20260507164004 59 307 5.0 14.0 0.00 0.01 0.00 38 1015.2
20260507163505 59 305 6.0 15.0 0.00 0.01 0.00 40 1015.3
20260507163003 59 294 6.0 15.0 0.00 0.01 0.00 39 1015.4
20260507162503 59 301 5.0 13.0 0.00 0.01 0.00 41 1015.4
20260507162003 40 311 5.0 13.0 0.00 0.01 0.00 78 1015.5
20260507161503 40 315 4.0 10.0 0.00 0.01 0.00 78 1015.5
20260507161004 40 311 4.0 11.0 0.00 0.01 0.00 78 1015.5
20260507160504 40 309 5.0 14.0 0.00 0.01 0.00 78 1015.5
20260507160003 40 297 6.0 14.0 0.00 0.01 0.00 78 1015.6
20260507155503 40 287 4.0 13.0 0.00 0.01 0.00 78 1015.5
20260507155004 40 302 5.0 13.0 0.00 0.01 0.00 78 1015.5
20260507154504 40 304 5.0 13.0 0.00 0.01 0.00 78 1015.5
20260507154004 40 303 3.0 13.0 0.00 0.01 0.00 78 1015.4
20260507153504 40 303 4.0 17.0 0.00 0.01 0.00 78 1015.5
20260507153004 40 304 4.0 17.0 0.00 0.01 0.00 78 1015.6
20260507152503 40 310 2.0 10.0 0.00 0.01 0.00 78 1015.5
20260507152004 40 306 3.0 11.0 0.00 0.01 0.00 78 1015.5
20260507151504 40 294 5.0 13.0 0.00 0.01 0.00 78 1015.5
20260507151003 40 292 7.0 13.0 0.00 0.01 0.00 78 1015.4
20260507150503 40 301 6.0 12.0 0.00 0.01 0.00 78 1015.4
20260507150003 40 305 4.0 11.0 0.00 0.01 0.00 78 1015.4
20260507145504 40 309 3.0 11.0 0.00 0.01 0.00 78 1015.4
20260507145004 40 319 3.0 11.0 0.00 0.01 0.00 78 1015.4
20260507144503 40 301 5.0 13.0 0.00 0.01 0.00 78 1015.5
20260507144003 40 291 6.0 13.0 0.00 0.01 0.00 78 1015.5
20260507143503 40 293 3.0 13.0 0.00 0.01 0.00 78 1015.5
20260507143003 40 313 4.0 10.0 0.00 0.01 0.00 78 1015.5
20260507142505 40 312 4.0 10.0 0.00 0.01 0.00 78 1015.5
20260507142004 40 313 3.0 10.0 0.00 0.01 0.00 78 1015.5
20260507141504 40 318 5.0 16.0 0.00 0.01 0.00 78 1015.5
20260507141003 40 307 5.0 16.0 0.00 0.01 0.00 78 1015.6
20260507140504 40 301 4.0 10.0 0.00 0.01 0.00 78 1015.6
20260507140006 40 313 2.0 9.0 0.00 0.01 0.00 78 1015.5
20260507135504 40 317 2.0 9.0 0.00 0.01 0.00 78 1015.6
20260507135003 40 317 3.0 9.0 0.00 0.01 0.00 78 1015.5
20260507134504 40 308 5.0 11.0 0.00 0.01 0.00 78 1015.6
20260507134004 40 297 5.0 11.0 0.00 0.01 0.00 78 1015.5
20260507133503 40 293 3.0 9.0 0.00 0.01 0.00 78 1015.5
20260507133007 40 306 2.0 8.0 0.00 0.01 0.00 78 1015.5
20260507132503 40 308 2.0 8.0 0.00 0.01 0.00 78 1015.5
20260507132003 40 299 1.0 7.0 0.00 0.01 0.00 78 1015.6
20260507131505 40 297 1.0 4.0 0.00 0.01 0.00 78 1015.5
20260507131006 40 297 1.0 4.0 0.00 0.01 0.00 78 1015.5
20260507130504 40 296 2.0 6.0 0.00 0.01 0.00 78 1015.5
20260507130004 40 302 3.0 7.0 0.00 0.01 0.00 78 1015.5
20260507125504 40 311 2.0 7.0 0.00 0.01 0.00 78 1015.5
20260507125003 40 318 1.0 4.0 0.00 0.01 0.00 78 1015.5
20260507124504 40 317 2.0 5.0 0.00 0.01 0.00 78 1015.5
20260507124004 40 320 2.0 5.0 0.00 0.01 0.00 78 1015.5
20260507123503 40 323 1.0 5.0 0.00 0.02 0.00 78 1015.5
20260507123003 40 325 1.0 4.0 0.00 0.02 0.00 78 1015.5
20260507122504 40 326 1.0 3.0 0.00 0.02 0.00 78 1015.4
20260507122004 40 326 1.0 3.0 0.00 0.02 0.00 78 1015.3
20260507121503 40 326 1.0 3.0 0.00 0.02 0.00 78 1015.2
20260507121005 40 326 0.0 1.0 0.00 0.02 0.00 78 1015.2
20260507120503 40 326 0.0 1.0 0.00 0.02 0.00 78 1015.2
20260507120005 40 326 0.0 1.0 0.00 0.02 0.00 78 1015.2
20260507115504 40 326 1.0 3.0 0.00 0.02 0.00 78 1015.2
20260507115004 40 326 1.0 3.0 0.00 0.02 0.00 78 1015.2
20260507114503 40 326 1.0 3.0 0.00 0.02 0.00 78 1015.2
20260507114003 40 326 1.0 3.0 0.00 0.02 0.00 78 1015.1
20260507113503 40 326 1.0 3.0 0.00 0.02 0.00 78 1015.0
20260507113005 40 326 1.0 3.0 0.00 0.02 0.00 78 1015.0
20260507112504 40 326 1.0 3.0 0.00 0.02 0.00 78 1014.9
20260507112003 40 326 1.0 3.0 0.00 0.02 0.00 78 1014.9
20260507111506 40 326 1.0 3.0 0.00 0.02 0.00 78 1014.9
20260507111004 40 326 1.0 3.0 0.00 0.02 0.00 78 1014.8
20260507110504 40 326 1.0 3.0 0.00 0.02 0.00 78 1014.8
20260507110004 40 326 1.0 3.0 0.00 0.02 0.00 78 1014.8
20260507105503 40 326 1.0 3.0 0.00 0.03 0.00 78 1014.9
20260507105003 40 326 1.0 3.0 0.00 0.03 0.00 78 1014.9
20260507104504 40 326 1.0 3.0 0.00 0.03 0.00 78 1014.9
20260507104003 40 326 1.0 3.0 0.00 0.03 0.00 78 1014.9
20260507103505 40 326 1.0 3.0 0.00 0.03 0.00 78 1015.0
20260507103004 40 326 1.0 3.0 0.00 0.03 0.00 78 1015.0
20260507102503 40 326 1.0 3.0 0.00 0.03 0.00 78 1014.9
20260507102006 40 326 1.0 3.0 0.00 0.03 0.00 78 1015.0
20260507101503 40 326 1.0 3.0 0.00 0.03 0.00 78 1015.0
20260507101004 40 326 1.0 3.0 0.00 0.03 0.00 78 1015.0
20260507100504 40 326 1.0 3.0 0.00 0.03 0.00 78 1015.0
20260507100004 40 326 1.0 3.0 0.00 0.03 0.00 78 1014.9
20260507095503 40 326 1.0 3.0 0.00 0.03 0.00 78 1014.9
20260507095004 40 326 1.0 3.0 0.00 0.03 0.00 78 1014.9
20260507094506 40 326 1.0 3.0 0.00 0.03 0.00 78 1014.8
20260507094003 40 326 1.0 3.0 0.00 0.03 0.00 78 1014.8
20260507093503 40 326 1.0 3.0 0.00 0.03 0.00 78 1014.8
20260507093003 40 326 1.0 3.0 0.00 0.03 0.00 78 1014.8
20260507092503 40 326 1.0 3.0 0.00 0.03 0.00 78 1014.7
20260507092004 40 326 1.0 3.0 0.00 0.03 0.00 78 1014.6
20260507091504 40 326 1.0 3.0 0.00 0.03 0.00 78 1014.6
20260507091006 40 326 1.0 3.0 0.00 0.04 0.00 78 1014.7
20260507090505 40 326 1.0 3.0 0.00 0.04 0.00 78 1014.7
20260507090005 40 326 1.0 3.0 0.00 0.04 0.00 78 1014.9
20260507085504 40 326 1.0 3.0 0.00 0.04 0.00 78 1014.9
20260507085003 40 326 1.0 3.0 0.00 0.04 0.00 78 1014.9
20260507084503 40 326 1.0 3.0 0.00 0.04 0.00 78 1014.8
20260507084004 40 326 1.0 3.0 0.00 0.04 0.00 78 1014.8
20260507083504 40 326 1.0 3.0 0.00 0.04 0.00 78 1014.7
20260507083004 40 326 1.0 3.0 0.00 0.04 0.00 78 1014.7
20260507082503 40 326 1.0 3.0 0.00 0.04 0.00 78 1014.6
20260507082004 40 326 1.0 3.0 0.00 0.04 0.00 78 1014.7
20260507081505 40 326 1.0 3.0 0.00 0.04 0.00 78 1014.6
20260507081003 40 326 1.0 3.0 0.00 0.04 0.00 78 1014.6
20260507080503 40 326 1.0 3.0 0.00 0.04 0.00 78 1014.6
20260507080003 40 326 1.0 3.0 0.00 0.04 0.00 78 1014.6
20260507075504 40 326 1.0 3.0 0.00 0.04 0.00 78 1014.5
20260507075004 41 326 1.0 3.0 0.00 0.05 0.00 78 1014.6
20260507074504 41 326 1.0 3.0 0.00 0.05 0.00 77 1014.6
20260507074003 41 326 1.0 3.0 0.00 0.05 0.00 77 1014.7
20260507073503 41 326 1.0 3.0 0.00 0.05 0.00 77 1014.6
20260507073003 41 326 1.0 3.0 0.00 0.05 0.00 77 1014.6
20260507072504 42 326 1.0 3.0 0.00 0.05 0.00 77 1014.6
20260507072004 42 326 1.0 3.0 0.00 0.05 0.00 76 1014.6
20260507071504 42 326 1.0 3.0 0.00 0.05 0.00 76 1014.7
20260507071003 42 326 1.0 3.0 0.00 0.05 0.00 76 1014.6
20260507070504 42 326 1.0 3.0 0.00 0.05 0.00 76 1014.7
20260507070007 42 326 1.0 3.0 0.00 0.05 0.00 75 1014.7